Regional Weather Roundup
Issued by NWS Glasgow, MT

Home | Current Version | Previous Version | Text Only | Print | Product List | Glossary On
Versions: 1 2 3 4 5 6 7 8 9 10 11 12 13 14 15 16 17 18 19 20 21 22 23 24 25 26 27 28 29 30 31 32 33 34 35 36 37 38 39 40 41 42 43 44 45 46 47 48 49 50
000
ASUS45 KGGW 300415
RWRGGW
HOURLY REGIONAL WEATHER ROUNDUP FOR NORTHEAST MONTANA
NATIONAL WEATHER SERVICE GLASGOW MONTANA
1000 PM MDT WED JUL 29 2015

NOTE: "FAIR" INDICATES FEW OR NO CLOUDS BELOW 12,000 FEET WITH NO
SIGNIFICANT WEATHER AND/OR OBSTRUCTIONS TO VISISBILITY.

NORTHEAST MONTANA


CITY           SKY/WX    TMP DP  RH WIND       PRES   REMARKS
GLASGOW        CLEAR     70  44  39 W5        30.08R
PLENTYWOOD       N/A     66  48  52 W8G20       N/A
WOLF POINT     PTCLDY    64  47  53 NW3       30.09R
JORDAN           N/A     65  49  56 CALM      30.13R
WINNETT          N/A     61  43  51 W6          N/A
SIDNEY         CLEAR    N/A N/A N/A W3        30.09R
GLENDIVE       CLEAR     61  50  67 NW3       30.14R
MALTA            N/A     68  47  46 S3          N/A

FORT PECK REPORTS


CITY           SKY/WX    TMP DP  RH WIND       PRES   REMARKS
FORT PECK        N/A     71  45  39 W7          N/A
THE PINES        N/A     71  40  32 W5          N/A

SOUTHEAST MONTANA


CITY           SKY/WX    TMP DP  RH WIND       PRES   REMARKS
BILLINGS       CLEAR     69  38  32 NW7       30.22R
MILES CITY     CLEAR     70  44  39 N7        30.14R
BAKER          CLEAR     61  42  49 CALM      30.18R
LIVINGSTON     CLEAR     65  40  39 CALM      30.26R

CENTRAL MONTANA


CITY           SKY/WX    TMP DP  RH WIND       PRES   REMARKS
HAVRE          MOCLDY    70  50  49 N6        30.10R
LEWISTOWN      CLEAR     62  45  53 S10       30.22R
GREAT FALLS    CLEAR     62  43  49 SW6       30.17R
CUT BANK       CLEAR     62  38  40 W9        30.18R
HELENA         CLEAR     72  37  28 SW7       30.21R
BUTTE          CLEAR     59  43  55 SE6       30.33R
BOZEMAN        CLEAR     63  47  55 S10       30.26R

WESTERN MONTANA


CITY           SKY/WX    TMP DP  RH WIND       PRES   REMARKS
MISSOULA       CLEAR     66  44  45 N6        30.19R
KALISPELL      NOT AVBL

NORTH DAKOTA


CITY           SKY/WX    TMP DP  RH WIND       PRES   REMARKS
WILLISTON      PTCLDY    66  50  56 NW8       30.08R
DICKINSON      CLEAR     62  47  57 W5        30.13R
MINOT          CLEAR     64  53  67 SW8       30.03R
BISMARCK       CLEAR     68  52  56 W6        30.08R

SOUTHERN SASKATCHEWAN


CITY           SKY/WX    TMP DP  RH WIND       PRES   REMARKS
REGINA         CLOUDY    63  55  77 W12G17    30.03R
ESTEVAN        PTCLDY    64  54  68 W9        30.05R
SWIFT CURRENT  CLOUDY    59  54  82 SE9       30.08F THUNDER



USA.gov is the U.S. government's official web portal to all federal, state and local government web resources and services.